| time (UTC) | temp F | wind direction | speed MPH | gust MPH | rain 1hr in | rain 24hr in | rain mn in | humidity % | barometer mb |
| 20260903182547 | 62 | 0 | 0.0 | 9.0 | 0.00 | 0.10 | 0.00 | 68 | 1009.3 |
| 20260903182047 | 62 | 172 | 3.0 | 9.0 | 0.00 | 0.10 | 0.00 | 67 | 1009.3 |
| 20260903181556 | 62 | 188 | 0.0 | 5.0 | 0.00 | 0.10 | 0.00 | 71 | 1009.4 |
| 20260903181049 | 61 | 0 | 1.0 | 5.0 | 0.00 | 0.10 | 0.00 | 71 | 1009.3 |
| 20260903180545 | 61 | 171 | 0.0 | 6.0 | 0.00 | 0.10 | 0.00 | 74 | 1009.3 |
| 20260903180107 | 61 | 0 | 0.0 | 6.0 | 0.00 | 0.10 | 0.00 | 72 | 1009.3 |
| 20260903175550 | 61 | 0 | 0.0 | 7.0 | 0.00 | 0.10 | 0.00 | 73 | 1009.3 |
| 20260903175046 | 61 | 171 | 0.0 | 7.0 | 0.00 | 0.10 | 0.00 | 73 | 1009.2 |
| 20260903174601 | 60 | 0 | 0.0 | 4.0 | 0.00 | 0.10 | 0.00 | 74 | 1009.3 |
| 20260903174048 | 60 | 182 | 0.0 | 4.0 | 0.00 | 0.10 | 0.00 | 78 | 1009.2 |
| 20260903173544 | 59 | 0 | 0.0 | 1.0 | 0.00 | 0.10 | 0.00 | 78 | 1009.3 |
| 20260903173102 | 58 | 0 | 0.0 | 2.0 | 0.00 | 0.10 | 0.00 | 81 | 1009.2 |
| 20260903172546 | 58 | 0 | 0.0 | 5.0 | 0.00 | 0.10 | 0.00 | 81 | 1009.3 |
| 20260903172044 | 58 | 0 | 0.0 | 9.0 | 0.00 | 0.10 | 0.00 | 79 | 1009.3 |
| 20260903171616 | 58 | 0 | 1.0 | 9.0 | 0.00 | 0.10 | 0.00 | 79 | 1009.3 |
| 20260903171044 | 59 | 0 | 1.0 | 10.0 | 0.00 | 0.10 | 0.00 | 78 | 1009.2 |
| 20260903170547 | 59 | 196 | 3.0 | 12.0 | 0.00 | 0.10 | 0.00 | 77 | 1009.2 |
| 20260903170104 | 59 | 141 | 3.0 | 12.0 | 0.00 | 0.10 | 0.00 | 76 | 1009.1 |
| 20260903165545 | 59 | 156 | 2.0 | 9.0 | 0.00 | 0.10 | 0.00 | 75 | 1009.1 |
| 20260903165047 | 59 | 165 | 1.0 | 10.0 | 0.00 | 0.10 | 0.00 | 76 | 1009.0 |
| 20260903164642 | 59 | 197 | 3.0 | 10.0 | 0.00 | 0.10 | 0.00 | 72 | 1009.0 |
| 20260903164047 | 59 | 0 | 4.0 | 10.0 | 0.00 | 0.10 | 0.00 | 74 | 1009.0 |
| 20260903163546 | 59 | 153 | 2.0 | 10.0 | 0.00 | 0.10 | 0.00 | 75 | 1009.0 |
| 20260903163103 | 59 | 167 | 1.0 | 9.0 | 0.00 | 0.10 | 0.00 | 76 | 1009.1 |
| 20260903162545 | 59 | 150 | 2.0 | 9.0 | 0.00 | 0.10 | 0.00 | 77 | 1009.1 |
| 20260903162048 | 59 | 188 | 4.0 | 10.0 | 0.00 | 0.10 | 0.00 | 76 | 1009.1 |
| 20260903161602 | 59 | 0 | 2.0 | 10.0 | 0.00 | 0.10 | 0.00 | 76 | 1009.0 |
| 20260903161047 | 59 | 184 | 3.0 | 10.0 | 0.00 | 0.10 | 0.00 | 75 | 1009.1 |
| 20260903160547 | 59 | 0 | 4.0 | 10.0 | 0.00 | 0.10 | 0.00 | 76 | 1009.1 |
| 20260903160109 | 59 | 156 | 4.0 | 12.0 | 0.00 | 0.10 | 0.00 | 76 | 1009.1 |
| 20260903155546 | 59 | 144 | 4.0 | 14.0 | 0.00 | 0.10 | 0.00 | 76 | 1009.0 |
| 20260903155048 | 58 | 175 | 5.0 | 14.0 | 0.00 | 0.10 | 0.00 | 76 | 1009.0 |
| 20260903154608 | 58 | 172 | 3.0 | 9.0 | 0.00 | 0.10 | 0.00 | 78 | 1009.0 |
| 20260903154048 | 58 | 160 | 3.0 | 9.0 | 0.00 | 0.10 | 0.00 | 78 | 1008.9 |
| 20260903153545 | 58 | 146 | 1.0 | 9.0 | 0.00 | 0.10 | 0.00 | 79 | 1009.0 |
| 20260903153102 | 57 | 154 | 3.0 | 8.0 | 0.00 | 0.10 | 0.00 | 79 | 1009.0 |
| 20260903152545 | 57 | 168 | 3.0 | 8.0 | 0.00 | 0.10 | 0.00 | 80 | 1009.0 |
| 20260903152050 | 57 | 149 | 1.0 | 6.0 | 0.00 | 0.10 | 0.00 | 82 | 1008.9 |
| 20260903151557 | 57 | 0 | 2.0 | 8.0 | 0.00 | 0.10 | 0.00 | 81 | 1008.9 |
| 20260903151046 | 57 | 0 | 0.0 | 8.0 | 0.00 | 0.10 | 0.00 | 81 | 1008.9 |
| 20260903150547 | 56 | 182 | 2.0 | 8.0 | 0.00 | 0.10 | 0.00 | 81 | 1008.9 |
| 20260903150100 | 56 | 0 | 2.0 | 8.0 | 0.00 | 0.10 | 0.00 | 81 | 1008.9 |
| 20260903145545 | 56 | 171 | 3.0 | 10.0 | 0.00 | 0.10 | 0.00 | 81 | 1008.8 |
| 20260903145047 | 56 | 128 | 3.0 | 10.0 | 0.00 | 0.10 | 0.00 | 81 | 1008.9 |
| 20260903144612 | 56 | 171 | 2.0 | 10.0 | 0.00 | 0.10 | 0.00 | 82 | 1008.9 |
| 20260903144047 | 56 | 194 | 4.0 | 10.0 | 0.00 | 0.10 | 0.00 | 82 | 1008.8 |
| 20260903143547 | 56 | 151 | 2.0 | 7.0 | 0.00 | 0.10 | 0.00 | 82 | 1008.8 |
| 20260903143101 | 56 | 145 | 1.0 | 7.0 | 0.00 | 0.10 | 0.00 | 82 | 1008.8 |
| 20260903142545 | 56 | 149 | 2.0 | 7.0 | 0.00 | 0.10 | 0.00 | 82 | 1008.7 |
| 20260903142047 | 56 | 157 | 2.0 | 8.0 | 0.00 | 0.10 | 0.00 | 83 | 1008.8 |
| 20260903141559 | 55 | 0 | 1.0 | 8.0 | 0.00 | 0.10 | 0.00 | 83 | 1008.6 |
| 20260903141046 | 55 | 157 | 2.0 | 7.0 | 0.00 | 0.10 | 0.00 | 85 | 1008.6 |
| 20260903140547 | 55 | 0 | 2.0 | 7.0 | 0.00 | 0.10 | 0.00 | 86 | 1008.6 |
| 20260903135546 | 54 | 0 | 0.0 | 4.0 | 0.00 | 0.10 | 0.00 | 88 | 1008.4 |
| 20260903135044 | 54 | 0 | 0.0 | 3.0 | 0.00 | 0.10 | 0.00 | 88 | 1008.3 |
| 20260903134613 | 54 | 0 | 0.0 | 3.0 | 0.00 | 0.10 | 0.00 | 88 | 1008.3 |
| 20260903134046 | 54 | 0 | 0.0 | 1.0 | 0.00 | 0.10 | 0.00 | 87 | 1008.2 |
| 20260903133551 | 55 | 0 | 0.0 | 1.0 | 0.00 | 0.10 | 0.00 | 87 | 1008.3 |
| 20260903133105 | 55 | 0 | 0.0 | 1.0 | 0.00 | 0.10 | 0.00 | 86 | 1008.3 |
| 20260903132547 | 55 | 0 | 0.0 | 2.0 | 0.00 | 0.10 | 0.00 | 85 | 1008.3 |
| 20260903132050 | 56 | 0 | 0.0 | 4.0 | 0.00 | 0.10 | 0.00 | 84 | 1008.2 |
| 20260903131559 | 56 | 0 | 0.0 | 4.0 | 0.00 | 0.10 | 0.00 | 83 | 1008.3 |
| 20260903131046 | 56 | 144 | 2.0 | 4.0 | 0.00 | 0.10 | 0.00 | 82 | 1008.2 |
| 20260903130550 | 56 | 144 | 1.0 | 3.0 | 0.00 | 0.10 | 0.00 | 81 | 1008.2 |
| 20260903130059 | 56 | 0 | 0.0 | 3.0 | 0.00 | 0.10 | 0.00 | 80 | 1008.0 |
| 20260903125546 | 56 | 0 | 0.0 | 3.0 | 0.00 | 0.10 | 0.00 | 80 | 1008.0 |
| 20260903125049 | 56 | 144 | 0.0 | 7.0 | 0.00 | 0.10 | 0.00 | 80 | 1008.0 |
| 20260903124619 | 56 | 0 | 0.0 | 7.0 | 0.00 | 0.10 | 0.00 | 80 | 1007.9 |
| 20260903124046 | 56 | 0 | 0.0 | 5.0 | 0.00 | 0.10 | 0.00 | 80 | 1007.8 |
| 20260903123558 | 56 | 165 | 0.0 | 3.0 | 0.00 | 0.10 | 0.00 | 80 | 1007.9 |
| 20260903123100 | 56 | 0 | 0.0 | 5.0 | 0.00 | 0.10 | 0.00 | 80 | 1007.8 |
| 20260903122545 | 56 | 0 | 0.0 | 5.0 | 0.00 | 0.10 | 0.00 | 80 | 1007.8 |
| 20260903122047 | 56 | 0 | 0.0 | 4.0 | 0.00 | 0.10 | 0.00 | 80 | 1007.8 |
| 20260903121603 | 56 | 0 | 0.0 | 4.0 | 0.00 | 0.10 | 0.00 | 80 | 1007.8 |
| 20260903121046 | 56 | 165 | 0.0 | 3.0 | 0.00 | 0.10 | 0.00 | 81 | 1007.7 |
| 20260903120546 | 56 | 0 | 0.0 | 3.0 | 0.00 | 0.10 | 0.00 | 81 | 1007.7 |
| 20260903120104 | 56 | 0 | 0.0 | 4.0 | 0.00 | 0.10 | 0.00 | 82 | 1007.7 |
| 20260903115546 | 56 | 0 | 0.0 | 4.0 | 0.00 | 0.10 | 0.00 | 81 | 1007.7 |
| 20260903115046 | 56 | 0 | 0.0 | 3.0 | 0.00 | 0.10 | 0.00 | 82 | 1007.6 |
| 20260903114555 | 56 | 0 | 0.0 | 4.0 | 0.00 | 0.10 | 0.00 | 82 | 1007.6 |
| 20260903114046 | 56 | 0 | 0.0 | 4.0 | 0.00 | 0.10 | 0.00 | 81 | 1007.6 |
| 20260903113550 | 56 | 165 | 0.0 | 3.0 | 0.00 | 0.10 | 0.00 | 82 | 1007.6 |
| 20260903113136 | 56 | 0 | 0.0 | 4.0 | 0.00 | 0.10 | 0.00 | 80 | 1007.6 |
| 20260903112549 | 56 | 166 | 2.0 | 7.0 | 0.00 | 0.10 | 0.00 | 80 | 1007.7 |
| 20260903112044 | 56 | 165 | 1.0 | 8.0 | 0.00 | 0.10 | 0.00 | 81 | 1007.7 |
| 20260903111557 | 56 | 144 | 0.0 | 8.0 | 0.00 | 0.10 | 0.00 | 82 | 1007.6 |
| 20260903111047 | 56 | 0 | 0.0 | 3.0 | 0.00 | 0.10 | 0.00 | 82 | 1007.6 |
| 20260903110547 | 56 | 0 | 0.0 | 1.0 | 0.00 | 0.10 | 0.00 | 80 | 1007.6 |
| 20260903110108 | 56 | 0 | 0.0 | 1.0 | 0.00 | 0.10 | 0.00 | 81 | 1007.6 |
| 20260903105544 | 56 | 0 | 0.0 | 5.0 | 0.00 | 0.10 | 0.00 | 81 | 1007.6 |
| 20260903105047 | 56 | 0 | 0.0 | 5.0 | 0.00 | 0.10 | 0.00 | 80 | 1007.6 |
| 20260903104609 | 56 | 0 | 0.0 | 9.0 | 0.00 | 0.10 | 0.00 | 80 | 1007.5 |
| 20260903104045 | 56 | 144 | 0.0 | 9.0 | 0.00 | 0.10 | 0.00 | 80 | 1007.5 |
| 20260903103546 | 56 | 96 | 2.0 | 9.0 | 0.00 | 0.10 | 0.00 | 80 | 1007.5 |
| 20260903103102 | 56 | 0 | 1.0 | 10.0 | 0.00 | 0.10 | 0.00 | 81 | 1007.5 |
| 20260903102546 | 56 | 153 | 1.0 | 10.0 | 0.00 | 0.10 | 0.00 | 82 | 1007.5 |
| 20260903102046 | 56 | 171 | 1.0 | 8.0 | 0.00 | 0.10 | 0.00 | 81 | 1007.5 |
| 20260903101602 | 56 | 0 | 1.0 | 5.0 | 0.00 | 0.10 | 0.00 | 82 | 1007.5 |
| 20260903101046 | 56 | 163 | 0.0 | 5.0 | 0.00 | 0.10 | 0.00 | 81 | 1007.5 |
| 20260903100546 | 56 | 0 | 0.0 | 5.0 | 0.00 | 0.10 | 0.00 | 81 | 1007.5 |
| 20260903095546 | 56 | 0 | 0.0 | 8.0 | 0.00 | 0.10 | 0.00 | 82 | 1007.5 |
| 20260903095046 | 56 | 151 | 0.0 | 8.0 | 0.00 | 0.10 | 0.00 | 82 | 1007.6 |
| 20260903094559 | 56 | 0 | 0.0 | 3.0 | 0.00 | 0.10 | 0.00 | 83 | 1007.5 |
| 20260903094048 | 56 | 183 | 0.0 | 3.0 | 0.00 | 0.10 | 0.00 | 83 | 1007.5 |
| 20260903093548 | 56 | 184 | 0.0 | 3.0 | 0.00 | 0.10 | 0.00 | 84 | 1007.5 |
| 20260903093104 | 56 | 183 | 0.0 | 3.0 | 0.00 | 0.10 | 0.00 | 83 | 1007.5 |
| 20260903092547 | 55 | 0 | 0.0 | 3.0 | 0.00 | 0.10 | 0.00 | 84 | 1007.5 |
| 20260903092047 | 55 | 0 | 0.0 | 3.0 | 0.00 | 0.10 | 0.00 | 84 | 1007.4 |
| 20260903091601 | 55 | 184 | 0.0 | 3.0 | 0.00 | 0.10 | 0.00 | 84 | 1007.4 |
| 20260903091046 | 55 | 0 | 0.0 | 5.0 | 0.00 | 0.10 | 0.00 | 84 | 1007.4 |
| 20260903090546 | 56 | 0 | 0.0 | 5.0 | 0.00 | 0.10 | 0.00 | 84 | 1007.4 |
| 20260903090057 | 56 | 146 | 1.0 | 4.0 | 0.00 | 0.10 | 0.00 | 83 | 1007.4 |
| 20260903085545 | 56 | 0 | 1.0 | 7.0 | 0.00 | 0.10 | 0.00 | 83 | 1007.4 |
| 20260903085047 | 56 | 172 | 0.0 | 9.0 | 0.00 | 0.10 | 0.00 | 83 | 1007.4 |
| 20260903084609 | 56 | 167 | 2.0 | 11.0 | 0.00 | 0.10 | 0.00 | 83 | 1007.4 |
| 20260903084047 | 56 | 167 | 3.0 | 12.0 | 0.00 | 0.10 | 0.00 | 83 | 1007.3 |
| 20260903083547 | 56 | 163 | 3.0 | 12.0 | 0.00 | 0.10 | 0.00 | 83 | 1007.3 |
| 20260903083100 | 55 | 150 | 4.0 | 10.0 | 0.00 | 0.10 | 0.00 | 84 | 1007.2 |
| 20260903082546 | 55 | 142 | 1.0 | 9.0 | 0.00 | 0.10 | 0.00 | 85 | 1007.2 |
| 20260903082046 | 55 | 163 | 2.0 | 9.0 | 0.00 | 0.10 | 0.00 | 86 | 1007.2 |
| 20260903081557 | 55 | 150 | 1.0 | 7.0 | 0.00 | 0.10 | 0.00 | 86 | 1007.2 |
| 20260903081047 | 55 | 156 | 0.0 | 7.0 | 0.00 | 0.10 | 0.00 | 86 | 1007.1 |
| 20260903080546 | 55 | 157 | 3.0 | 10.0 | 0.00 | 0.10 | 0.00 | 85 | 1007.2 |
| 20260903075547 | 55 | 140 | 0.0 | 7.0 | 0.00 | 0.10 | 0.00 | 86 | 1007.2 |
| 20260903075046 | 55 | 171 | 2.0 | 8.0 | 0.00 | 0.10 | 0.00 | 86 | 1007.2 |
| 20260903074601 | 55 | 0 | 1.0 | 8.0 | 0.00 | 0.10 | 0.00 | 85 | 1007.3 |
| 20260903074047 | 55 | 171 | 2.0 | 8.0 | 0.00 | 0.10 | 0.00 | 86 | 1007.2 |
| 20260903073547 | 55 | 169 | 1.0 | 9.0 | 0.00 | 0.10 | 0.00 | 86 | 1007.2 |
| 20260903073059 | 55 | 0 | 2.0 | 9.0 | 0.00 | 0.10 | 0.00 | 86 | 1007.2 |
| 20260903072546 | 55 | 189 | 3.0 | 9.0 | 0.00 | 0.10 | 0.00 | 86 | 1007.2 |
| 20260903072046 | 55 | 0 | 2.0 | 6.0 | 0.00 | 0.10 | 0.00 | 87 | 1007.2 |
| 20260903071613 | 55 | 156 | 1.0 | 9.0 | 0.00 | 0.10 | 0.00 | 87 | 1007.2 |
| 20260903071047 | 55 | 161 | 1.0 | 10.0 | 0.00 | 0.10 | 0.00 | 87 | 1007.2 |
| 20260903070549 | 55 | 214 | 3.0 | 10.0 | 0.00 | 0.10 | 0.00 | 87 | 1007.2 |
| 20260903070100 | 55 | 150 | 2.0 | 8.0 | 0.00 | 0.10 | 0.00 | 87 | 1007.2 |
| 20260903065550 | 55 | 0 | 3.0 | 8.0 | 0.00 | 0.10 | 0.10 | 88 | 1007.1 |
| 20260903065046 | 54 | 133 | 0.0 | 3.0 | 0.00 | 0.10 | 0.10 | 89 | 1007.2 |
| 20260903064600 | 54 | 0 | 0.0 | 4.0 | 0.00 | 0.10 | 0.10 | 89 | 1007.1 |
| 20260903064046 | 55 | 0 | 0.0 | 7.0 | 0.00 | 0.10 | 0.10 | 89 | 1007.0 |
| 20260903063546 | 55 | 136 | 0.0 | 7.0 | 0.00 | 0.10 | 0.10 | 89 | 1007.0 |
| 20260903063055 | 55 | 136 | 1.0 | 11.0 | 0.00 | 0.10 | 0.10 | 88 | 1007.2 |
| 20260903062546 | 55 | 0 | 1.0 | 12.0 | 0.00 | 0.10 | 0.10 | 88 | 1007.0 |
| 20260903062050 | 55 | 0 | 2.0 | 12.0 | 0.00 | 0.10 | 0.10 | 89 | 1007.0 |
| 20260903061607 | 55 | 0 | 2.0 | 10.0 | 0.00 | 0.10 | 0.10 | 89 | 1007.0 |
| 20260903061049 | 55 | 176 | 1.0 | 9.0 | 0.00 | 0.10 | 0.10 | 89 | 1007.0 |
| 20260903060553 | 55 | 178 | 1.0 | 9.0 | 0.00 | 0.10 | 0.10 | 89 | 1007.0 |
| 20260903060106 | 55 | 0 | 0.0 | 5.0 | 0.00 | 0.10 | 0.10 | 89 | 1007.0 |
| 20260903055547 | 55 | 155 | 1.0 | 9.0 | 0.00 | 0.10 | 0.10 | 89 | 1007.0 |
| 20260903055050 | 55 | 0 | 0.0 | 9.0 | 0.00 | 0.10 | 0.10 | 88 | 1007.0 |
| 20260903054603 | 55 | 0 | 3.0 | 11.0 | 0.00 | 0.10 | 0.10 | 88 | 1007.0 |
| 20260903054046 | 56 | 167 | 1.0 | 16.0 | 0.00 | 0.10 | 0.10 | 88 | 1007.1 |
| 20260903053545 | 56 | 155 | 4.0 | 16.0 | 0.00 | 0.10 | 0.10 | 88 | 1007.0 |
| 20260903053101 | 55 | 153 | 2.0 | 11.0 | 0.00 | 0.10 | 0.10 | 89 | 1007.0 |
| 20260903052551 | 56 | 159 | 3.0 | 11.0 | 0.00 | 0.10 | 0.10 | 89 | 1007.0 |
| 20260903052047 | 55 | 133 | 4.0 | 10.0 | 0.00 | 0.10 | 0.10 | 89 | 1006.9 |
| 20260903051613 | 55 | 153 | 1.0 | 11.0 | 0.00 | 0.10 | 0.10 | 90 | 1006.9 |
| 20260903051046 | 55 | 192 | 1.0 | 11.0 | 0.00 | 0.10 | 0.10 | 90 | 1006.8 |
| 20260903050546 | 55 | 159 | 1.0 | 9.0 | 0.00 | 0.10 | 0.10 | 90 | 1006.9 |
| 20260903050101 | 56 | 0 | 0.0 | 9.0 | 0.00 | 0.10 | 0.10 | 90 | 1007.0 |
| 20260903045546 | 56 | 155 | 1.0 | 9.0 | 0.00 | 0.10 | 0.10 | 90 | 1006.8 |
| 20260903045046 | 56 | 145 | 1.0 | 9.0 | 0.00 | 0.10 | 0.10 | 90 | 1006.8 |
| 20260903044600 | 56 | 161 | 1.0 | 8.0 | 0.00 | 0.10 | 0.10 | 90 | 1006.7 |
| 20260903044047 | 56 | 177 | 1.0 | 9.0 | 0.00 | 0.10 | 0.10 | 90 | 1006.6 |
| 20260903043547 | 56 | 0 | 1.0 | 9.0 | 0.00 | 0.10 | 0.10 | 90 | 1006.5 |
| 20260903043207 | 56 | 156 | 1.0 | 14.0 | 0.00 | 0.10 | 0.10 | 90 | 1006.5 |
| 20260903042546 | 56 | 109 | 1.0 | 14.0 | 0.00 | 0.10 | 0.10 | 90 | 1006.5 |
| 20260903042050 | 56 | 131 | 2.0 | 10.0 | 0.00 | 0.10 | 0.10 | 90 | 1006.5 |
| 20260903041602 | 56 | 0 | 2.0 | 9.0 | 0.00 | 0.10 | 0.10 | 90 | 1006.4 |
| 20260903041048 | 56 | 167 | 2.0 | 10.0 | 0.00 | 0.10 | 0.10 | 90 | 1006.4 |
| 20260903040548 | 56 | 0 | 1.0 | 11.0 | 0.00 | 0.10 | 0.10 | 90 | 1006.3 |
| 20260903035546 | 56 | 176 | 4.0 | 12.0 | 0.00 | 0.10 | 0.10 | 90 | 1006.3 |
| 20260903035047 | 56 | 126 | 3.0 | 10.0 | 0.00 | 0.10 | 0.10 | 90 | 1006.1 |
| 20260903034602 | 56 | 0 | 2.0 | 13.0 | 0.00 | 0.10 | 0.10 | 90 | 1006.1 |
| 20260903034047 | 56 | 173 | 5.0 | 14.0 | 0.00 | 0.10 | 0.10 | 90 | 1006.1 |
| 20260903033546 | 56 | 156 | 6.0 | 15.0 | 0.00 | 0.10 | 0.10 | 90 | 1005.9 |
| 20260903033058 | 57 | 222 | 5.0 | 15.0 | 0.00 | 0.10 | 0.10 | 90 | 1005.6 |
| 20260903032547 | 57 | 161 | 2.0 | 14.0 | 0.00 | 0.10 | 0.10 | 90 | 1005.7 |
| 20260903032046 | 57 | 120 | 4.0 | 14.0 | 0.00 | 0.10 | 0.10 | 89 | 1005.6 |
| 20260903031602 | 57 | 137 | 3.0 | 17.0 | 0.00 | 0.10 | 0.10 | 89 | 1005.5 |
| 20260903031046 | 57 | 150 | 4.0 | 17.0 | 0.00 | 0.10 | 0.10 | 88 | 1005.5 |
| 20260903030546 | 58 | 174 | 3.0 | 17.0 | 0.00 | 0.10 | 0.10 | 88 | 1005.5 |
| 20260903025544 | 58 | 196 | 6.0 | 15.0 | 0.00 | 0.10 | 0.10 | 88 | 1005.3 |
| 20260903025046 | 58 | 161 | 6.0 | 18.0 | 0.00 | 0.10 | 0.10 | 88 | 1005.1 |
| 20260903024604 | 58 | 127 | 7.0 | 18.0 | 0.00 | 0.10 | 0.10 | 88 | 1005.1 |
| 20260903024045 | 58 | 152 | 8.0 | 17.0 | 0.00 | 0.10 | 0.10 | 88 | 1004.9 |
| 20260903023546 | 58 | 82 | 7.0 | 17.0 | 0.00 | 0.10 | 0.10 | 89 | 1004.9 |
| 20260903023103 | 59 | 174 | 3.0 | 13.0 | 0.00 | 0.10 | 0.10 | 89 | 1004.8 |
| 20260903022550 | 59 | 0 | 4.0 | 15.0 | 0.00 | 0.10 | 0.10 | 89 | 1004.7 |
| 20260903022043 | 59 | 152 | 6.0 | 15.0 | 0.00 | 0.10 | 0.10 | 89 | 1004.7 |
| 20260903021559 | 59 | 168 | 7.0 | 15.0 | 0.00 | 0.10 | 0.10 | 89 | 1004.8 |
| 20260903021047 | 59 | 155 | 6.0 | 15.0 | 0.00 | 0.10 | 0.10 | 89 | 1004.8 |
| 20260903020546 | 59 | 133 | 3.0 | 13.0 | 0.00 | 0.10 | 0.10 | 89 | 1004.8 |
| 20260903015546 | 59 | 133 | 7.0 | 20.0 | 0.00 | 0.10 | 0.10 | 89 | 1004.8 |
| 20260903015046 | 59 | 117 | 6.0 | 15.0 | 0.00 | 0.10 | 0.10 | 89 | 1004.7 |
| 20260903014604 | 59 | 52 | 7.0 | 14.0 | 0.00 | 0.10 | 0.10 | 89 | 1004.5 |
| 20260903014046 | 59 | 180 | 7.0 | 14.0 | 0.00 | 0.10 | 0.10 | 90 | 1004.4 |
| 20260903013549 | 59 | 168 | 6.0 | 13.0 | 0.00 | 0.10 | 0.10 | 91 | 1004.4 |
| 20260903013108 | 58 | 159 | 3.0 | 10.0 | 0.00 | 0.10 | 0.10 | 92 | 1004.3 |
| 20260903012547 | 58 | 169 | 4.0 | 10.0 | 0.00 | 0.10 | 0.10 | 93 | 1004.2 |
| 20260903012046 | 58 | 142 | 0.0 | 7.0 | 0.00 | 0.10 | 0.10 | 94 | 1004.0 |
| 20260903011602 | 58 | 0 | 1.0 | 7.0 | 0.00 | 0.10 | 0.10 | 94 | 1003.8 |
| 20260903011046 | 58 | 0 | 1.0 | 7.0 | 0.01 | 0.10 | 0.10 | 94 | 1003.6 |
| 20260903010546 | 58 | 156 | 0.0 | 3.0 | 0.01 | 0.10 | 0.10 | 94 | 1003.5 |
| 20260903010106 | 58 | 0 | 0.0 | 8.0 | 0.02 | 0.10 | 0.10 | 94 | 1003.5 |
| 20260903005549 | 58 | 0 | 0.0 | 8.0 | 0.03 | 0.10 | 0.10 | 94 | 1003.4 |
| 20260903005048 | 58 | 0 | 1.0 | 6.0 | 0.05 | 0.10 | 0.10 | 94 | 1003.5 |
| 20260903004605 | 58 | 0 | 1.0 | 6.0 | 0.06 | 0.10 | 0.10 | 94 | 1003.5 |
| 20260903004048 | 58 | 0 | 0.0 | 4.0 | 0.07 | 0.10 | 0.10 | 94 | 1003.4 |
| 20260903003547 | 58 | 0 | 0.0 | 4.0 | 0.08 | 0.10 | 0.10 | 94 | 1003.5 |
| 20260903003102 | 58 | 0 | 0.0 | 4.0 | 0.08 | 0.10 | 0.10 | 93 | 1003.5 |
| 20260903002546 | 58 | 0 | 0.0 | 5.0 | 0.09 | 0.10 | 0.10 | 93 | 1003.7 |
| 20260903002047 | 58 | 137 | 0.0 | 5.0 | 0.09 | 0.10 | 0.10 | 93 | 1004.0 |
| 20260903001602 | 58 | 0 | 0.0 | 10.0 | 0.10 | 0.10 | 0.10 | 93 | 1004.1 |
| 20260903001047 | 58 | 0 | 2.0 | 10.0 | 0.09 | 0.09 | 0.09 | 92 | 1004.4 |
| 20260903000544 | 58 | 147 | 3.0 | 10.0 | 0.09 | 0.09 | 0.09 | 92 | 1004.6 |
| 20260903000103 | 58 | 158 | 2.0 | 9.0 | 0.08 | 0.08 | 0.08 | 92 | 1004.6 |
| 20260902235546 | 58 | 162 | 2.0 | 9.0 | 0.07 | 0.07 | 0.07 | 91 | 1004.5 |
| 20260902235046 | 59 | 153 | 2.0 | 9.0 | 0.05 | 0.05 | 0.05 | 91 | 1004.6 |
| 20260902234615 | 59 | 161 | 2.0 | 10.0 | 0.04 | 0.04 | 0.04 | 90 | 1004.5 |
| 20260902234045 | 59 | 165 | 3.0 | 10.0 | 0.03 | 0.03 | 0.03 | 90 | 1004.5 |
| 20260902233544 | 59 | 132 | 1.0 | 9.0 | 0.02 | 0.02 | 0.02 | 89 | 1004.5 |
| 20260902233103 | 59 | 152 | 3.0 | 10.0 | 0.02 | 0.02 | 0.02 | 88 | 1004.4 |
| 20260902232545 | 59 | 153 | 4.0 | 11.0 | 0.01 | 0.01 | 0.01 | 88 | 1004.3 |
| 20260902232047 | 60 | 171 | 4.0 | 11.0 | 0.01 | 0.01 | 0.01 | 87 | 1004.3 |
| 20260902231613 | 60 | 123 | 5.0 | 11.0 | 0.00 | 0.00 | 0.00 | 86 | 1004.3 |
| 20260902231047 | 60 | 157 | 5.0 | 12.0 | 0.00 | 0.00 | 0.00 | 83 | 1004.3 |
| 20260902230546 | 60 | 163 | 5.0 | 13.0 | 0.00 | 0.00 | 0.00 | 84 | 1004.3 |
| 20260902230107 | 61 | 197 | 6.0 | 13.0 | 0.00 | 0.00 | 0.00 | 82 | 1004.3 |
| 20260902225546 | 61 | 183 | 5.0 | 11.0 | 0.00 | 0.00 | 0.00 | 81 | 1004.2 |
| 20260902225050 | 62 | 215 | 4.0 | 12.0 | 0.00 | 0.00 | 0.00 | 79 | 1004.2 |
| 20260902224610 | 62 | 268 | 5.0 | 15.0 | 0.00 | 0.00 | 0.00 | 78 | 1004.2 |
| 20260902224047 | 63 | 169 | 7.0 | 15.0 | 0.00 | 0.00 | 0.00 | 76 | 1004.2 |
| 20260902223547 | 63 | 214 | 5.0 | 11.0 | 0.00 | 0.00 | 0.00 | 76 | 1004.1 |
| 20260902223101 | 63 | 178 | 4.0 | 11.0 | 0.00 | 0.00 | 0.00 | 75 | 1004.0 |
| 20260902222543 | 64 | 211 | 4.0 | 14.0 | 0.00 | 0.00 | 0.00 | 74 | 1004.1 |
| 20260902222046 | 64 | 177 | 4.0 | 14.0 | 0.00 | 0.00 | 0.00 | 73 | 1004.2 |
| 20260902221608 | 64 | 202 | 3.0 | 12.0 | 0.00 | 0.00 | 0.00 | 72 | 1004.1 |
| 20260902221045 | 65 | 242 | 6.0 | 12.0 | 0.00 | 0.00 | 0.00 | 70 | 1004.3 |
| 20260902220546 | 66 | 184 | 4.0 | 13.0 | 0.00 | 0.00 | 0.00 | 69 | 1003.9 |
| 20260902215545 | 66 | 240 | 5.0 | 14.0 | 0.00 | 0.00 | 0.00 | 67 | 1003.9 |
| 20260902215045 | 65 | 161 | 6.0 | 14.0 | 0.00 | 0.00 | 0.00 | 67 | 1003.9 |
| 20260902214603 | 66 | 200 | 5.0 | 13.0 | 0.00 | 0.00 | 0.00 | 67 | 1003.9 |
| 20260902214047 | 66 | 180 | 5.0 | 16.0 | 0.00 | 0.00 | 0.00 | 66 | 1004.1 |
| 20260902213546 | 65 | 175 | 6.0 | 16.0 | 0.00 | 0.00 | 0.00 | 66 | 1004.2 |
| 20260902213127 | 66 | 193 | 7.0 | 17.0 | 0.00 | 0.00 | 0.00 | 65 | 1004.4 |
| 20260902212546 | 66 | 195 | 8.0 | 17.0 | 0.00 | 0.00 | 0.00 | 64 | 1004.3 |
| 20260902212045 | 66 | 222 | 4.0 | 14.0 | 0.00 | 0.00 | 0.00 | 65 | 1004.2 |
| 20260902211605 | 66 | 219 | 6.0 | 15.0 | 0.00 | 0.00 | 0.00 | 65 | 1004.2 |
| 20260902211046 | 66 | 169 | 5.0 | 15.0 | 0.00 | 0.00 | 0.00 | 65 | 1004.2 |
| 20260902210548 | 66 | 171 | 7.0 | 15.0 | 0.00 | 0.00 | 0.00 | 64 | 1004.2 |
| 20260902205546 | 67 | 175 | 6.0 | 16.0 | 0.00 | 0.00 | 0.00 | 61 | 1004.2 |
| 20260902205047 | 68 | 232 | 5.0 | 13.0 | 0.00 | 0.00 | 0.00 | 60 | 1004.2 |
| 20260902204600 | 69 | 241 | 3.0 | 13.0 | 0.00 | 0.00 | 0.00 | 57 | 1004.1 |
| 20260902204046 | 70 | 208 | 5.0 | 12.0 | 0.00 | 0.00 | 0.00 | 56 | 1004.2 |
| 20260902203546 | 70 | 186 | 3.0 | 13.0 | 0.00 | 0.00 | 0.00 | 56 | 1004.0 |
| 20260902203108 | 69 | 173 | 4.0 | 13.0 | 0.00 | 0.00 | 0.00 | 57 | 1004.0 |
| 20260902202547 | 69 | 165 | 4.0 | 12.0 | 0.00 | 0.00 | 0.00 | 56 | 1004.0 |
| 20260902202046 | 70 | 192 | 2.0 | 9.0 | 0.00 | 0.00 | 0.00 | 57 | 1004.1 |
| 20260902201605 | 69 | 154 | 3.0 | 9.0 | 0.00 | 0.00 | 0.00 | 57 | 1004.1 |
| 20260902201045 | 69 | 185 | 3.0 | 9.0 | 0.00 | 0.00 | 0.00 | 58 | 1004.1 |
| 20260902200547 | 69 | 153 | 1.0 | 9.0 | 0.00 | 0.00 | 0.00 | 59 | 1004.2 |
| 20260902200134 | 69 | 194 | 4.0 | 14.0 | 0.00 | 0.00 | 0.00 | 56 | 1004.3 |
| 20260902195546 | 69 | 166 | 4.0 | 14.0 | 0.00 | 0.00 | 0.00 | 57 | 1004.4 |
| 20260902195046 | 69 | 144 | 1.0 | 13.0 | 0.00 | 0.00 | 0.00 | 61 | 1004.5 |
| 20260902194601 | 69 | 136 | 6.0 | 13.0 | 0.00 | 0.00 | 0.00 | 58 | 1004.5 |
| 20260902194046 | 69 | 182 | 3.0 | 14.0 | 0.00 | 0.00 | 0.00 | 57 | 1004.6 |
| 20260902193546 | 68 | 157 | 5.0 | 14.0 | 0.00 | 0.00 | 0.00 | 59 | 1004.7 |
| 20260902193103 | 68 | 152 | 6.0 | 14.0 | 0.00 | 0.00 | 0.00 | 59 | 1004.7 |
| 20260902192546 | 68 | 156 | 5.0 | 12.0 | 0.00 | 0.00 | 0.00 | 60 | 1004.7 |
| 20260902192047 | 68 | 159 | 4.0 | 15.0 | 0.00 | 0.00 | 0.00 | 60 | 1004.7 |
| 20260902191609 | 68 | 153 | 6.0 | 22.0 | 0.00 | 0.00 | 0.00 | 59 | 1004.8 |
| 20260902191047 | 68 | 187 | 7.0 | 22.0 | 0.00 | 0.00 | 0.00 | 59 | 1004.8 |
| 20260902190546 | 68 | 149 | 7.0 | 16.0 | 0.00 | 0.00 | 0.00 | 60 | 1004.9 |
| 20260902190115 | 69 | 178 | 6.0 | 16.0 | 0.00 | 0.00 | 0.00 | 60 | 1005.0 |
| 20260902185552 | 68 | 119 | 6.0 | 14.0 | 0.00 | 0.00 | 0.00 | 60 | 1005.0 |
| 20260902185053 | 69 | 160 | 7.0 | 14.0 | 0.00 | 0.00 | 0.00 | 59 | 1005.1 |
| 20260902184603 | 69 | 174 | 1.0 | 12.0 | 0.00 | 0.00 | 0.00 | 61 | 1005.1 |
| 20260902184046 | 68 | 163 | 5.0 | 12.0 | 0.00 | 0.00 | 0.00 | 61 | 1005.1 |
| 20260902183550 | 68 | 176 | 5.0 | 11.0 | 0.00 | 0.00 | 0.00 | 62 | 1005.2 |
| 20260902183119 | 67 | 161 | 6.0 | 11.0 | 0.00 | 0.00 | 0.00 | 63 | 1005.2 |